Location: Unspecified
(51.0950°N, 12.9690°E)
Time: 21:04:43
(UTC+00:00)

JY1SAT - Pass Details

Date: 03 May 2024
Orbit: 538 x 552 km, 97.5° (Epoch: 25 May)

Event Time Altitude Azimuth Distance (km) Brightness Sun altitude
Exits shadow 19:39:17 11° 152° (SSE) 1,751 ? -9.3°
Maximum altitude 19:43:00 60° 72° (ENE) 627 ? -9.8°
Drops below altitude 10° 19:46:51 10° 353° (N) 1,816 ? -10.2°
Sets 19:49:00 0° 350° (N) 2,711 ? -10.5°
